Weather History for KOWB - February, 2013

Change the Weather History Date:

Friday, February 22, 2013

  Actual Average Record
Temperature  
Mean Temperature 40 °F -  
Max Temperature 46 °F 53 °F 72 °F (1988)
Min Temperature 34 °F 32 °F -3 °F (1963)
Degree Days  
Heating Degree Days 25    
Moisture  
Dew Point 37 °F    
Average Humidity 91    
Maximum Humidity 100    
Minimum Humidity 73    
Precipitation  
Precipitation 0.01 in - - ()
Sea Level Pressure  
Sea Level Pressure 29.94 in    
Wind  
Wind Speed 9 mph (SW)    
Max Wind Speed 16 mph    
Max Gust Speed 21 mph    
Visibility 6 miles    
Events Rain    
Averages and records for this station are not official NWS values.
T = Trace of Precipitation, MM = Missing Value Source: NWS Daily Summary

Daily Weather History Graph

Daily Weather History Graph

Search for Another Location

Airport or City:

Trip Planner

Search our weather history database for the weather conditions in past years. The results will help you decide how hot, cold, wet, or windy it might be!

Date:

Astronomy

Feb. 22, 2013 Rise Set
Actual Time 6:29 AM CST 5:35 PM CST
Civil Twilight 6:02 AM CST 6:02 PM CST
Nautical Twilight 5:32 AM CST 6:32 PM CST
Astronomical Twilight 5:01 AM CST 7:02 PM CST
Moon 2:48 PM CST (2/22) 4:11 AM CST (2/22)
Length of Visible Light 11h 59m
Length of Day
11h 06m
Waxing Gibbous, 90% of the Moon is Illuminated
Feb 22
Waxing Gibbous
Feb 25
Full
Mar 4
Last Quarter
Mar 11
New
Mar 19
First Quarter

Hourly Weather History & Observations

Time (CST) Temp. Windchill Dew Point Humidity Pressure Visibility Wind Dir Wind Speed Gust Speed Precip Events Conditions
12:56 AM 36.9 °F 30.7 °F 36.9 °F 100% 29.87 in 2.0 mi SE 8.1 mph - 0.00 in   Overcast
1:30 AM 37.4 °F 30.3 °F 37.4 °F 100% 29.84 in 2.5 mi SE 10.4 mph - 0.01 in Rain Light Rain
1:47 AM 37.4 °F 31.4 °F 37.4 °F 100% 29.85 in 3.0 mi SSE 8.1 mph - 0.01 in   Overcast
1:56 AM 37.9 °F 32.1 °F 37.9 °F 100% 29.86 in 3.0 mi SSE 8.1 mph - 0.01 in   Overcast
2:15 AM 37.4 °F 32.1 °F 37.4 °F 100% 29.85 in 3.0 mi SSE 6.9 mph - N/A   Overcast
2:23 AM 37.4 °F 32.1 °F 37.4 °F 100% 29.85 in 2.5 mi South 6.9 mph - N/A   Overcast
2:40 AM 37.4 °F 32.1 °F 37.4 °F 100% 29.85 in 1.8 mi SSE 6.9 mph - N/A   Overcast
2:56 AM 37.9 °F 33.5 °F 37.9 °F 100% 29.86 in 1.2 mi SSE 5.8 mph - N/A   Overcast
3:01 AM 37.4 °F 33.8 °F 37.4 °F 100% 29.85 in 1.8 mi SSE 4.6 mph - N/A   Overcast
3:05 AM 39.2 °F 34.2 °F 39.2 °F 100% 29.85 in 2.0 mi SSE 6.9 mph - N/A   Overcast
3:14 AM 39.2 °F 35.0 °F 39.2 °F 100% 29.84 in 1.8 mi SSE 5.8 mph - N/A   Overcast
3:21 AM 39.2 °F 35.0 °F 39.2 °F 100% 29.84 in 1.5 mi South 5.8 mph - N/A   Overcast
3:56 AM 39.9 °F 34.5 °F 39.9 °F 100% 29.85 in 2.5 mi South 8.1 mph - N/A   Overcast
4:03 AM 39.2 °F 33.0 °F 39.2 °F 100% 29.84 in 2.0 mi SSE 9.2 mph - N/A   Overcast
4:32 AM 39.2 °F 35.0 °F 39.2 °F 100% 29.85 in 1.8 mi SSW 5.8 mph - N/A   Overcast
4:56 AM 38.8 °F 33.2 °F 38.8 °F 100% 29.88 in 1.0 mi SSW 8.1 mph - N/A   Overcast
5:05 AM 39.2 °F 35.0 °F 39.2 °F 100% 29.88 in 0.8 mi SW 5.8 mph - N/A   Overcast
5:16 AM 39.2 °F 33.6 °F 39.2 °F 100% 29.89 in 1.2 mi WSW 8.1 mph - N/A   Overcast
5:23 AM 39.2 °F 33.0 °F 39.2 °F 100% 29.89 in 2.0 mi SW 9.2 mph - N/A   Overcast
5:32 AM 39.2 °F 32.5 °F 39.2 °F 100% 29.89 in 3.0 mi SW 10.4 mph - N/A   Overcast
5:43 AM 41.0 °F 32.8 °F 41.0 °F 100% 29.90 in 9.0 mi WSW 16.1 mph - N/A   Overcast
6:56 AM 41.0 °F 33.9 °F 37.9 °F 89% 29.94 in 7.0 mi West 12.7 mph 20.7 mph N/A   Overcast
7:24 AM 39.2 °F 33.0 °F 37.4 °F 93% 29.95 in 7.0 mi West 9.2 mph - N/A   Overcast
7:56 AM 39.9 °F 35.8 °F 37.9 °F 93% 29.98 in 10.0 mi West 5.8 mph - N/A   Overcast
8:38 AM 41.0 °F 33.9 °F 37.4 °F 87% 29.98 in 10.0 mi WSW 12.7 mph - N/A   Overcast
8:56 AM 41.0 °F 34.3 °F 37.9 °F 89% 29.99 in 10.0 mi WSW 11.5 mph - N/A   Overcast
9:56 AM 43.0 °F 35.4 °F 38.8 °F 85% 30.00 in 10.0 mi WSW 16.1 mph - N/A   Overcast
10:56 AM 43.0 °F 36.0 °F 37.9 °F 82% 30.02 in 10.0 mi WSW 13.8 mph - N/A   Overcast
11:56 AM 43.0 °F 36.0 °F 37.9 °F 82% 30.03 in 10.0 mi West 13.8 mph 20.7 mph N/A   Overcast
1:56 PM 45.0 °F 38.5 °F 37.9 °F 76% 29.99 in 10.0 mi SW 13.8 mph - N/A   Overcast
2:56 PM 46.9 °F - 39.9 °F 77% 29.98 in 10.0 mi SW 11.5 mph - N/A   Mostly Cloudy
3:56 PM 46.9 °F - 38.8 °F 73% 29.98 in 10.0 mi WSW 13.8 mph - N/A   Scattered Clouds
4:56 PM 45.9 °F 41.7 °F 37.9 °F 74% 29.99 in 10.0 mi West 8.1 mph - N/A   Clear
5:56 PM 43.0 °F 38.2 °F 36.9 °F 79% 30.00 in 10.0 mi West 8.1 mph - N/A   Clear
6:56 PM 39.9 °F 34.5 °F 36.0 °F 86% 30.01 in 10.0 mi WSW 8.1 mph - N/A   Scattered Clouds
7:56 PM 41.0 °F 35.2 °F 36.9 °F 85% 30.03 in 10.0 mi WSW 9.2 mph - N/A   Mostly Cloudy
8:56 PM 37.9 °F 30.9 °F 32.9 °F 82% 30.06 in 10.0 mi NW 10.4 mph - N/A   Overcast
9:29 PM 37.4 °F 28.5 °F 30.2 °F 75% 30.05 in 10.0 mi NW 15.0 mph - N/A   Scattered Clouds
9:56 PM 36.0 °F 27.5 °F 30.0 °F 79% 30.06 in 10.0 mi NW 12.7 mph - N/A   Overcast
10:49 PM 35.6 °F 27.5 °F 28.4 °F 75% 30.04 in 10.0 mi NW 11.5 mph - N/A   Scattered Clouds
10:56 PM 34.9 °F 26.6 °F 29.1 °F 79% 30.06 in 10.0 mi NW 11.5 mph - N/A   Scattered Clouds
11:06 PM 35.6 °F 28.0 °F 30.2 °F 81% 30.05 in 10.0 mi NW 10.4 mph - N/A   Mostly Cloudy
11:56 PM 34.9 °F 28.3 °F 30.0 °F 82% 30.06 in 10.0 mi NW 8.1 mph - N/A   Overcast